Regional Weather Roundup
Issued by NWS

Home | Current Version | Previous Version | Text Only | Print | Product List | Glossary On
Versions: 1 2 3 4 5 6 7 8 9 10 11 12 13 14 15 16 17 18 19 20 21 22 23 24 25 26 27 28 29 30 31 32 33 34 35 36 37 38 39 40 41 42 43 44 45 46 47 48 49 50
000
ASUS45 KPSR 280010
RWRAZ

ARIZONA HOURLY REGIONAL WEATHER ROUNDUP
NATIONAL WEATHER SERVICE PHOENIX AZ
500 PM MST WED MAY 27 2015

NOTE: FAIR INDICATES FEW OR NO CLOUDS BELOW 12,000 FEET WITH NO
SIGNIFICANT WEATHER AND/OR OBSTRUCTIONS TO VISIBILITY.

AZZ001>003-036-280100-
NORTHWEST ARIZONA

CITY           SKY/WX    TMP DP  RH WIND       PRES   REMARKS
BULLHEAD CITY  SUNNY     95  27   8 S14       29.78S
KINGMAN        MOSUNNY   85  24  11 SW15G24   29.94F
6HR MIN TEMP:  79; 6HR MAX TEMP:  88;

$$

AZZ004>008-015-016-018-280100-
NORTH CENTRAL ARIZONA

CITY           SKY/WX    TMP DP  RH WIND       PRES   REMARKS
GRAND CANYON   SUNNY     72  20  14 SW10G18   30.12F
6HR MIN TEMP:  67; 6HR MAX TEMP:  74; 6HR PCP: TRACE;

WILLIAMS       SUNNY     70  27  19 SW13G20   30.21F
PRESCOTT       MOSUNNY   75  31  19 VRB5      30.06F
6HR MIN TEMP:  64; 6HR MAX TEMP:  77;

FLAGSTAFF      MOSUNNY   67  26  21 SW14G22   30.16F
6HR MIN TEMP:  63; 6HR MAX TEMP:  67;

PAYSON         CLOUDY    73  30  20 W9        30.09S
PAGE           MOSUNNY   83  34  17 NE7       29.94F
6HR MIN TEMP:  73; 6HR MAX TEMP:  84;

$$

AZZ009>014-017-280100-
NORTHEAST ARIZONA

CITY           SKY/WX    TMP DP  RH WIND       PRES   REMARKS
WINSLOW        CLOUDY    79  28  15 W16       30.03F
6HR MIN TEMP:  73; 6HR MAX TEMP:  80;

SAINT JOHNS    MOSUNNY   77  23  13 N12       30.03F
6HR MIN TEMP:  73; 6HR MAX TEMP:  81;

WINDOW ROCK    CLOUDY    70  21  15 W9        30.14F
6HR MIN TEMP:  69; 6HR MAX TEMP:  74;

SHOW LOW       SUNNY     72  19  14 S16G22    30.12S
$$

AZZ023-280100-
GREATER PHOENIX AREA

CITY           SKY/WX    TMP DP  RH WIND       PRES   REMARKS
PHOENIX        CLOUDY    94  33  11 W16       29.80F
6HR MIN TEMP:  87; 6HR MAX TEMP:  97;

BUCKEYE        PTSUNNY   91  28  10 W8        29.83S
GLENDALE       PTSUNNY   93  36  13 W5        29.83F
LUKE AFB       CLOUDY    92  33  12 SW7       29.81F
6HR MIN TEMP:  82; 6HR MAX TEMP:  93;

DEER VALLEY    CLOUDY    90  24   9 W9        29.84S
6HR MIN TEMP:  82; 6HR MAX TEMP:  92;

SCOTTSDALE     PTSUNNY   91  27  10 W3        29.85F
6HR MIN TEMP:  85; 6HR MAX TEMP:  93;

MESA-FALCON    PTSUNNY   91  30  11 W7        29.83F
MESA-GATEWAY   PTSUNNY   91  34  13 N12       29.85S
CHANDLER       PTSUNNY   93  32  11 W8        29.82F
$$

AZZ027-028-280100-
SOUTHWEST MARICOPA COUNTY AND PINAL COUNTY

CITY           SKY/WX    TMP DP  RH WIND       PRES   REMARKS
CASA GRANDE    PTSUNNY   93  32  11 NW8       29.82S
6HR MIN TEMP:  84; 6HR MAX TEMP:  93;

GILA BEND      SUNNY     95  27   8 W13       29.79F
6HR MIN TEMP:  89; 6HR MAX TEMP:  97;

$$

AZZ503-504-507>509-280100-
SOUTHEAST ARIZONA

CITY           SKY/WX    TMP DP  RH WIND       PRES   REMARKS
TUCSON         MOSUNNY   93  16   6 W14       29.90S
6HR MIN TEMP:  86; 6HR MAX TEMP:  96;

DAVIS-MONTHAN  PTSUNNY   93  17   6 W10       29.88S
6HR MIN TEMP:  84; 6HR MAX TEMP:  94;

RYAN FIELD       N/A     93  21   7 W6        29.89S
NOGALES        SUNNY     88  13   6 S14G21    29.98F
6HR MIN TEMP:  83; 6HR MAX TEMP:  91;

SIERRA VISTA   SUNNY     84   5   5 W18G25    30.03S
6HR MIN TEMP:  79; 6HR MAX TEMP:  87;

DOUGLAS        SUNNY     88  10   5 W16G22    29.97F
6HR MIN TEMP:  80; 6HR MAX TEMP:  90;

SAFFORD        PTSUNNY   92  15   6 MISG      29.88S
6HR MIN TEMP:  82; 6HR MAX TEMP:  93;

$$

AZZ020-021-025-026-031-280100-
SOUTHWEST ARIZONA

CITY           SKY/WX    TMP DP  RH WIND       PRES   REMARKS
YUMA           MOSUNNY   94  39  14 SE8       29.79F
6HR MIN TEMP:  83; 6HR MAX TEMP:  94;

$$

CAZ031-033-041-043-047-048-061-280100-
SOUTHERN CALIFORNIA

CITY           SKY/WX    TMP DP  RH WIND       PRES   REMARKS
DOWNTOWN L.A.  SUNNY     68  55  63 W8        29.95S
6HR MIN TEMP:  64; 6HR MAX TEMP:  72;

L.A. AIRPORT   MOSUNNY   64  55  72 W16       29.97S
6HR MIN TEMP:  62; 6HR MAX TEMP:  67;

SAN DIEGO      MOSUNNY   68  53  58 W9        29.98F
6HR MIN TEMP:  64; 6HR MAX TEMP:  69;

BURBANK        SUNNY     72  53  51 S10       29.93F
6HR MIN TEMP:  62; 6HR MAX TEMP:  74;

ONTARIO        SUNNY     78  52  40 W12G21    29.92F
6HR MIN TEMP:  63; 6HR MAX TEMP:  79;

RIVERSIDE      SUNNY     78  54  43 W12G20    29.92S
6HR MIN TEMP:  63; 6HR MAX TEMP:  81;

PALM SPRINGS   SUNNY     94  42  16 MISG      29.81F
6HR MIN TEMP:  85; 6HR MAX TEMP:  96;

EL CENTRO NAS  MOSUNNY   94  44  17 VRB5      29.78F
6HR MIN TEMP:  84; 6HR MAX TEMP:  95;

IMPERIAL       SUNNY     94  46  19 E6        29.76F
6HR MIN TEMP:  82; 6HR MAX TEMP:  95;

BLYTHE         SUNNY     94  33  11 SE10      29.78F
6HR MIN TEMP:  87; 6HR MAX TEMP:  95;

$$

NVZ020-UTZ003-280100-
SOUTHERN NEVADA-UTAH

CITY           SKY/WX    TMP DP  RH WIND       PRES   REMARKS
LAS VEGAS      MOSUNNY   92  32  12 S12G23    29.78F
6HR MIN TEMP:  84; 6HR MAX TEMP:  93;

SALT LAKE CITY PTSUNNY   69  48  47 N7        30.00F
6HR MIN TEMP:  59; 6HR MAX TEMP:  71;

$$

NMZ009-TXZ055-280100-
NEW MEXICO-WEST TEXAS

CITY           SKY/WX    TMP DP  RH WIND       PRES   REMARKS
ALBUQUERQUE    CLOUDY    77  29  17 SE7       30.05F
6HR MIN TEMP:  72; 6HR MAX TEMP:  79;

EL PASO        PTSUNNY   89  18   7 W5        29.93F
6HR MIN TEMP:  86; 6HR MAX TEMP:  92;

$$


........................KEY........................
SKY/WX - SKY CONDITION/WEATHER
TMP    - TEMPERATURE IN FAHRENHEIT
DP     - DEW POINT IN FAHRENHEIT
RH     - RELATIVE HUMIDITY IN PERCENT
WIND   - DIRECTION AND SPEED IN MILES PER HOUR (MPH)
VRB    - VARIABLE WIND DIRECTION
PRES   - MEAN SEA LEVEL PRESSURE IN INCHES OF MERCURY
         F - FALLING PRESSURE   R - RISING PRESSURE
         S - STEADY PRESSURE
VSB    - VISIBILITY IN MILES
HX     - HEAT INDEX IN FAHRENHEIT
WCI    - WIND CHILL INDEX IN FAHRENHEIT
TC     - TEMPERATURE IN CELSIUS WHICH IS ALSO KNOWN AS
         TEMPERATURE IN CENTIGRADE
AFB    - AIR FORCE BASE
         LUKE AFB IS LUKE AIR FORCE BASE
         DAVIS-MONTHAN IS DAVIS-MONTHAN AIR FORCE BASE
NAS    - NAVAL AIR STATION
         EL CENTRO NAS IS EL CENTRO NAVAL AIR STATION
N/A    - NOT AVAILABLE



USA.gov is the U.S. government's official web portal to all federal, state and local government web resources and services.